Find Starlink 35607

NORAD ID: 66163 Int'l Des: 2025-240 Owner: SPXS Country: US Constellation: starlink operational
LEOCIRCULAR

現在のビュー

3D地球を読み込み中...

About Starlink 35607

Starlink 35607 (NORAD 66163) is a starlink constellation satellite (v2 mini) launched Oct 25, 2025 by SPXS of US. It operates in LEO, CIRCULAR orbit with a mass of 575.00 kg.

次回通過

Passes for default location (London). Set your location on the main map for personalized predictions.

高度履歴

Loading altitude history...

軌道要素

1 66163U 25240T 26264.33306061 .00020275 00000-0 60961-3 0 9998
2 66163 53.1573 229.7119 0001388 81.7383 278.3777 15.34398363 52002
Epoch: Sep 21, 2026 • Age: 19 hours

現在のステータス

高度 463.3 km
遠地点 / 近地点 N/A
速度 7.64 km/s
衛星直下点 27.57°N, 155.64°W
打ち上げ日 Oct 25, 2025
運用期間 0.9 years
タイプ internet

技術仕様

分類 Payload
質量 575.00 kg
乾燥質量 530.00 kg
長さ 0.30 m
スパン 29.00 m
形状 ? Box + pan
製造者 SPXS
バスタイプ Starlink V2MO
フェーズステータス In Orbit
所有者/国 SPXS/US

Most Searched